KA0EZE-4 Weather Reports


Display with metric or nautical units.
time (UTC)temp
F
wind
direction
speed
MPH
gust
MPH
rain 1hr
in
rain 24hr
in
rain mn
in
humidity
%
barometer
mb
20201204104307 24 281 0.0 0.0 0.00 0.00 0.00 92 969.4
20201204103634 24 281 0.0 0.0 0.00 0.00 0.00 92 969.3
20201204103309 24 281 0.0 0.0 0.00 0.00 0.00 92 969.3
20201204102309 25 281 0.0 0.0 0.00 0.00 0.00 92 969.2
20201204101724 25 281 0.0 0.0 0.00 0.00 0.00 91 969.0
20201204101303 25 281 0.0 0.0 0.00 0.00 0.00 91 969.0
20201204100652 25 281 0.0 0.0 0.00 0.00 0.00 90 968.9
20201204100258 25 281 0.0 0.0 0.00 0.00 0.00 90 968.9
20201204095610 26 281 0.0 0.0 0.00 0.00 0.00 90 968.9
20201204095300 26 281 0.0 0.0 0.00 0.00 0.00 90 968.9
20201204094624 26 281 0.0 0.0 0.00 0.00 0.00 90 969.0
20201204094259 26 281 0.0 0.0 0.00 0.00 0.00 90 969.0
20201204093257 26 281 0.0 0.0 0.00 0.00 0.00 92 969.0
20201204092600 25 281 0.0 0.0 0.00 0.00 0.00 91 968.9
20201204092257 25 281 0.0 0.0 0.00 0.00 0.00 91 968.9
20201204091257 25 281 0.0 0.0 0.00 0.00 0.00 90 968.9
20201204090715 26 281 0.0 0.0 0.00 0.00 0.00 90 968.9
20201204090257 26 281 0.0 0.0 0.00 0.00 0.00 90 968.9
20201204085549 26 281 0.0 0.0 0.00 0.00 0.00 90 968.9
20201204085256 26 281 0.0 0.0 0.00 0.00 0.00 90 968.9
20201204084550 26 281 0.0 0.0 0.00 0.00 0.00 89 968.9
20201204084257 26 281 0.0 0.0 0.00 0.00 0.00 89 968.9
20201204082633 27 281 0.0 0.0 0.00 0.00 0.00 87 968.9
20201204082257 27 281 0.0 0.0 0.00 0.00 0.00 87 968.9
20201204081632 27 281 0.0 0.0 0.00 0.00 0.00 88 968.8
20201204081254 27 281 0.0 0.0 0.00 0.00 0.00 88 968.8
20201204080629 27 281 0.0 0.0 0.00 0.00 0.00 87 968.6
20201204080254 27 281 0.0 0.0 0.00 0.00 0.00 87 968.6
20201204075259 28 281 0.0 0.0 0.00 0.00 0.00 86 968.6
20201204074252 28 281 0.0 0.0 0.00 0.00 0.00 86 968.6
20201204073256 28 281 0.0 0.0 0.00 0.00 0.00 86 968.5
20201204072255 28 281 0.0 0.0 0.00 0.00 0.00 85 968.4
20201204071253 29 281 0.0 0.0 0.00 0.00 0.00 84 968.5
20201204070251 29 281 0.0 0.0 0.00 0.00 0.00 84 968.7
20201204065537 29 300 0.0 0.0 0.00 0.00 0.00 84 968.8
20201204065252 29 300 0.0 0.0 0.00 0.00 0.00 84 968.8
20201204064600 29 300 0.0 0.0 0.00 0.00 0.00 84 968.7
20201204064252 29 300 0.0 0.0 0.00 0.00 0.00 84 968.7
20201204063703 29 300 0.0 0.0 0.00 0.00 0.00 84 968.9
20201204063251 29 300 0.0 0.0 0.00 0.00 0.00 84 968.9
20201204062251 29 305 0.0 0.0 0.00 0.00 0.00 84 968.8
20201204061250 29 305 0.0 0.0 0.00 0.00 0.00 85 968.8
20201204060249 28 305 0.0 0.0 0.00 0.00 0.00 86 969.0
20201204055249 27 307 0.0 0.0 0.00 0.00 0.00 86 969.2
20201204054249 27 307 0.0 0.0 0.00 0.00 0.00 87 969.3
20201204053517 26 307 0.0 0.0 0.00 0.00 0.00 86 969.4
20201204053250 26 307 0.0 0.0 0.00 0.00 0.00 86 969.4
20201204052249 26 307 0.0 0.0 0.00 0.00 0.00 85 969.4
20201204051248 27 307 0.0 0.0 0.00 0.00 0.00 85 969.5
20201204045246 27 307 0.0 0.0 0.00 0.00 0.00 85 969.4
20201204044604 27 307 0.0 0.0 0.00 0.00 0.00 84 969.3
20201204044248 27 307 0.0 0.0 0.00 0.00 0.00 84 969.3
20201204043245 27 307 0.0 0.0 0.00 0.00 0.00 83 969.4
20201204042246 27 307 0.0 0.0 0.00 0.00 0.00 83 969.5
20201204041244 27 307 0.0 0.0 0.00 0.00 0.00 82 969.5
20201204040249 27 307 0.0 0.0 0.00 0.00 0.00 81 969.6
20201204035245 27 307 0.0 0.0 0.00 0.00 0.00 82 969.6
20201204034245 27 307 0.0 0.0 0.00 0.00 0.00 81 969.7
20201204033627 27 307 0.0 0.0 0.00 0.00 0.00 80 969.9
20201204033253 27 307 0.0 0.0 0.00 0.00 0.00 80 969.9
20201204032244 28 307 0.0 0.0 0.00 0.00 0.00 78 970.2
20201204031242 28 307 0.0 0.0 0.00 0.00 0.00 78 970.3
20201204030240 29 307 0.0 0.0 0.00 0.00 0.00 77 970.4
20201204025240 29 307 0.0 0.0 0.00 0.00 0.00 77 970.5
20201204023240 30 307 0.0 0.0 0.00 0.00 0.00 75 970.6
20201204022241 30 307 0.0 0.0 0.00 0.00 0.00 73 970.7
20201204021239 31 307 0.0 0.0 0.00 0.00 0.00 72 970.7
20201204020236 32 307 0.0 0.0 0.00 0.00 0.00 71 970.8
20201204015240 32 307 0.0 0.0 0.00 0.00 0.00 70 970.6
20201204014239 33 271 0.0 0.0 0.00 0.00 0.00 69 970.1
20201204013239 33 300 0.0 0.0 0.00 0.00 0.00 68 969.9
20201204012237 34 231 0.0 0.0 0.00 0.00 0.00 67 969.9
20201204011235 34 253 0.0 0.0 0.00 0.00 0.00 67 969.8
20201204010238 34 253 0.0 0.0 0.00 0.00 0.00 67 970.0
20201204005237 34 253 0.0 0.0 0.00 0.00 0.00 67 970.2
20201204004234 34 253 0.0 0.0 0.00 0.00 0.00 66 970.2
20201204003238 33 253 0.0 0.0 0.00 0.00 0.00 67 970.3
20201204002233 33 253 0.0 0.0 0.00 0.00 0.00 67 970.6
20201204001233 33 253 0.0 0.0 0.00 0.00 0.00 66 970.5
20201203235233 34 253 0.0 0.0 0.00 0.00 0.00 64 970.8
20201203234232 34 253 0.0 0.0 0.00 0.00 0.00 63 970.8
20201203232231 36 253 0.0 0.0 0.00 0.00 0.00 60 971.0
20201203231544 36 253 0.0 0.0 0.00 0.00 0.00 59 971.1
20201203231233 36 253 0.0 0.0 0.00 0.00 0.00 59 971.1
20201203230230 37 253 0.0 0.0 0.00 0.00 0.00 58 971.3
20201203225231 37 253 0.0 0.0 0.00 0.00 0.00 58 971.4
20201203224234 38 238 0.0 0.0 0.00 0.00 0.00 57 971.1
20201203223229 38 238 0.0 0.0 0.00 0.00 0.00 57 971.0
20201203222542 38 281 0.0 0.0 0.00 0.00 0.00 57 971.0
20201203222229 38 281 0.0 0.0 0.00 0.00 0.00 57 971.0
20201203221523 38 271 0.0 0.0 0.00 0.00 0.00 57 971.1
20201203221228 38 271 0.0 0.0 0.00 0.00 0.00 57 971.1
20201203220228 38 236 0.0 0.0 0.00 0.00 0.00 57 971.2
20201203215227 39 241 0.0 0.0 0.00 0.00 0.00 57 971.2
20201203214234 39 241 0.0 0.0 0.00 0.00 0.00 57 971.4
20201203213227 39 273 0.0 0.0 0.00 0.00 0.00 56 971.5
20201203212529 39 273 0.0 0.0 0.00 0.00 0.00 56 971.5
20201203212357 39 273 0.0 0.0 0.00 0.00 0.00 56 971.5
20201203212226 39 273 0.0 0.0 0.00 0.00 0.00 56 971.5
20201203211632 39 305 1.0 0.0 0.00 0.00 0.00 57 971.6
20201203211229 39 305 1.0 0.0 0.00 0.00 0.00 57 971.6
20201203210227 39 271 0.0 0.0 0.00 0.00 0.00 57 971.7
20201203205230 39 306 0.0 0.0 0.00 0.00 0.00 57 971.7
20201203204224 39 305 0.0 0.0 0.00 0.00 0.00 57 971.7
20201203203226 39 250 2.0 0.0 0.00 0.00 0.00 57 971.6
20201203202224 39 253 0.0 0.0 0.00 0.00 0.00 57 971.8
20201203200224 39 242 1.0 0.0 0.00 0.00 0.00 58 972.1
20201203195226 39 280 1.0 0.0 0.00 0.00 0.00 57 972.2
20201203194221 39 256 2.0 0.0 0.00 0.00 0.00 57 972.4
20201203192221 40 284 0.0 0.0 0.00 0.00 0.00 58 972.7
20201203191615 39 240 1.0 0.0 0.00 0.00 0.00 58 972.7
20201203191220 39 240 1.0 0.0 0.00 0.00 0.00 58 972.7
20201203190219 39 236 1.0 0.0 0.00 0.00 0.00 59 972.8
20201203185218 39 312 0.0 0.0 0.00 0.00 0.00 60 972.9
20201203184220 39 270 0.0 0.0 0.00 0.00 0.00 61 973.0
20201203183218 38 228 1.0 0.0 0.00 0.00 0.00 64 973.3
20201203182222 37 284 0.0 0.0 0.00 0.00 0.00 65 973.5
20201203181216 37 306 1.0 0.0 0.00 0.00 0.00 68 973.7
20201203180216 36 326 1.0 0.0 0.00 0.00 0.00 69 974.2
20201203175606 36 307 0.0 0.0 0.00 0.00 0.00 71 974.4
20201203175225 36 307 0.0 0.0 0.00 0.00 0.00 71 974.4
20201203174559 35 341 2.0 0.0 0.00 0.00 0.00 75 974.7
20201203174215 35 341 2.0 0.0 0.00 0.00 0.00 75 974.7
20201203173217 35 253 2.0 0.0 0.00 0.00 0.00 75 975.0
20201203172214 35 229 4.0 0.0 0.00 0.00 0.00 75 975.1
20201203171213 34 297 0.0 0.0 0.00 0.00 0.00 78 975.3
20201203170445 33 329 1.0 0.0 0.00 0.00 0.00 80 975.5
20201203170212 33 329 1.0 0.0 0.00 0.00 0.00 80 975.5
20201203165213 32 272 0.0 0.0 0.00 0.00 0.00 82 975.6
20201203164208 32 276 0.0 0.0 0.00 0.00 0.00 83 975.7
20201203163207 32 298 0.0 0.0 0.00 0.00 0.00 84 975.8
20201203161455 31 289 0.0 0.0 0.00 0.00 0.00 87 976.0
20201203161210 31 289 0.0 0.0 0.00 0.00 0.00 87 976.0
20201203160205 31 288 0.0 0.0 0.00 0.00 0.00 88 976.0
20201203155206 31 240 1.0 0.0 0.00 0.00 0.00 89 976.1
20201203154608 30 285 0.0 0.0 0.00 0.00 0.00 90 976.0
20201203154208 30 285 0.0 0.0 0.00 0.00 0.00 90 976.0
20201203153204 30 265 0.0 0.0 0.00 0.00 0.00 91 975.8
20201203151203 29 307 0.0 0.0 0.00 0.00 0.00 92 976.2
20201203150203 29 289 0.0 0.0 0.00 0.00 0.00 92 976.4
20201203145203 28 293 0.0 0.0 0.00 0.00 0.00 92 976.6
20201203144327 28 293 0.0 0.0 0.00 0.00 0.00 92 976.3
20201203144204 28 293 0.0 0.0 0.00 0.00 0.00 92 976.3
20201203143203 28 293 0.0 0.0 0.00 0.00 0.00 92 976.3
20201203142203 27 238 0.0 0.0 0.00 0.00 0.00 91 976.4
20201203141201 27 288 0.0 0.0 0.00 0.00 0.00 90 976.5
20201203140212 26 288 0.0 0.0 0.00 0.00 0.00 91 976.8
20201203135159 25 288 0.0 0.0 0.00 0.00 0.00 91 976.9
20201203134532 25 288 0.0 0.0 0.00 0.00 0.00 91 976.8
20201203134159 25 288 0.0 0.0 0.00 0.00 0.00 91 976.8
20201203133200 25 288 0.0 0.0 0.00 0.00 0.00 92 976.9
20201203132203 25 288 0.0 0.0 0.00 0.00 0.00 92 976.8
20201203131200 25 288 0.0 0.0 0.00 0.00 0.00 92 976.8
20201203130531 25 288 0.0 0.0 0.00 0.00 0.00 92 976.9
20201203130249 25 288 0.0 0.0 0.00 0.00 0.00 92 976.9
20201203130158 25 288 0.0 0.0 0.00 0.00 0.00 92 976.9
20201203125158 25 288 0.0 0.0 0.00 0.00 0.00 92 977.1
20201203124527 25 288 0.0 0.0 0.00 0.00 0.00 92 977.1
20201203124158 25 288 0.0 0.0 0.00 0.00 0.00 92 977.1
20201203123630 26 288 0.0 0.0 0.00 0.00 0.00 92 977.2
20201203123200 26 288 0.0 0.0 0.00 0.00 0.00 92 977.2
20201203122158 26 288 0.0 0.0 0.00 0.00 0.00 92 977.1
20201203121156 26 288 0.0 0.0 0.00 0.00 0.00 92 977.0
20201203120154 26 288 0.0 0.0 0.00 0.00 0.00 92 977.0
20201203115153 26 288 0.0 0.0 0.00 0.00 0.00 92 977.1
20201203114152 27 288 0.0 0.0 0.00 0.00 0.00 92 977.1
20201203113157 27 288 0.0 0.0 0.00 0.00 0.00 92 977.3
20201203112151 27 288 0.0 0.0 0.00 0.00 0.00 92 977.3
20201203111523 27 288 0.0 0.0 0.00 0.00 0.00 92 977.3
20201203111152 27 288 0.0 0.0 0.00 0.00 0.00 92 977.3